This demonstration page uses our WeatherBlox Daily Observations layout. Learn more.

Left ArrowRight Arrow

Hourly Observations for February 28, 2015

Temp ( °F °C ) Dew Point ( °F °C ) Humidity (%) Winds ( mph kmh ) Pressure ( in mb ) Visibility ( mi km ) Precip ( " mm )
12:51 am 00:51 Mostly Clear 51 10.6 32 undefined 48 48 NE 6 9 29.68 1005 10 16 N/A
1:51 am 01:51 Clear 52 11.1 33 0.6 49 49 E 3 6 29.67 1005 10 16 N/A
2:51 am 02:51 Clear 48 8.9 33 0.6 56 56 ENE 6 9 29.68 1005 10 16 N/A
3:51 am 03:51 Clear 48 8.9 34 1.1 58 58 E 8 13 29.68 1005 10 16 N/A
4:51 am 04:51 Clear 49 9.4 36 2.2 61 61 E 7 11 29.68 1005 10 16 N/A
5:51 am 05:51 Clear 51 10.6 38 3.3 61 61 SE 9 15 29.70 1006 10 16 N/A
6:51 am 06:51 Partly Cloudy 54 12.2 38 3.3 55 55 SSE 14 22 29.72 1006 10 16 N/A
7:51 am 07:51 Sunny 56 13.3 37 2.8 49 49 S 10 17 29.73 1007 10 16 N/A
8:51 am 08:51 Sunny 57 13.9 37 2.8 47 47 SSE 9 15 29.77 1008 10 16 N/A
9:51 am 09:51 Mostly Sunny 62 16.7 37 2.8 40 40 VRB 3 6 29.76 1008 10 16 N/A
10:51 am 10:51 Mostly Cloudy 65 18.3 37 2.8 36 36 ENE 5 7 29.76 1008 10 16 N/A
11:51 am 11:51 Mostly Cloudy 67 19.4 37 2.8 33 33 VRB 7 11 29.76 1008 10 16 N/A
12:51 pm 12:51 Cloudy 66 18.9 36 2.2 33 33 NW 6 9 29.75 1007 10 16 N/A
1:51 pm 13:51 Cloudy 66 18.9 38 3.3 36 36 NNW 14 22 29.73 1007 10 16 N/A
2:51 pm 14:51 Mostly Cloudy 67 19.4 38 3.3 35 35 NNW 8 13 29.74 1007 10 16 N/A
3:51 pm 15:51 Cloudy 67 19.4 39 3.9 36 36 NW 14 22 29.74 1007 10 16 N/A
4:51 pm 16:51 Cloudy 65 18.3 40 4.4 40 40 NNW 15 24 29.75 1007 10 16 N/A
5:51 pm 17:51 Cloudy 62 16.7 41 5 46 46 NW 15 24 29.76 1008 10 16 N/A
6:51 pm 18:51 Cloudy 61 16.1 42 5.6 50 50 NW 14 22 29.79 1009 10 16 N/A
7:51 pm 19:51 Cloudy 59 15 44 6.7 58 58 NW 13 20 29.81 1010 10 16 N/A
8:51 pm 20:51 Cloudy 58 14.4 44 6.7 60 60 WNW 10 17 29.84 1010 10 16 N/A
9:51 pm 21:51 Cloudy 58 14.4 44 6.7 60 60 N N/A 29.85 1011 10 16 N/A
10:51 pm 22:51 Cloudy 56 13.3 44 6.7 65 65 S 3 6 29.87 1011 10 16 N/A
11:51 pm 23:51 Cloudy 55 12.8 44 6.7 67 67 N N/A 29.87 1012 10 16 N/A

Powered by AerisWeather